#timestamp,LO_Frequency,Hit,StdDev 
1582206075.5,286047012.1,P
1582206095.3,286047013.2,P
1582206115.2,286047014.9,P
1582206135.9,286047015.6,Y
1582206155.7,286047002.7,P
1582206175.6,286047002.4,N
1582206195.4,286047002.8,N
1582206215.2,286047002.7,N
1582206235.1,286047002.5,N
1582206236.0,286047002.5,N
1582206255.8,286047002.2,N
1582206275.7,286047001.4,N
1582206295.5,286047001.3,N
1582206315.3,286047002.0,N
1582206335.2,286047003.1,N
1582206355.0,286047004.1,N
1582206355.9,286047004.1,N
1582206375.7,286047003.7,N
1582206395.6,286047001.8,N
1582206415.4,286047004.3,N
1582206435.3,286047003.6,N
1582206455.1,286047005.8,N
1582206456.0,286047005.8,N
1582206475.8,286047006.0,N
1582206495.7,286047005.1,N
1582206515.5,286047005.7,N
1582206535.3,286047005.9,N
1582206555.2,286047011.9,Y
1582206575.0,286047004.4,P
1582206575.9,286047004.4,P
1582206595.8,286047004.1,P
1582206615.6,286047001.9,Y
1582206635.4,286046998.9,P
1582206655.3,286046998.3,N
1582206675.1,286046998.3,N
1582206695.9,286047000.7,N
1582206715.7,286047000.5,N
1582206735.5,286047000.0,N
1582206755.4,286047002.4,N
1582206775.2,286047001.9,N
1582206795.0,286047002.6,N
1582206795.9,286047002.6,N
1582206815.8,286047004.2,N
1582206835.6,286047004.1,N
1582206855.5,286047005.7,N
1582206875.3,286047008.8,Y
1582206895.1,286047007.6,P
1582206915.9,286047005.4,N
1582206935.7,286047003.4,N
1582206955.6,286047003.5,N
1582206975.4,286047001.5,N
1582206995.2,286047001.3,N
1582207015.1,286047004.4,N
1582207016.0,286047004.4,N
1582207035.8,286047001.3,N
1582207055.6,286047001.9,N
1582207075.5,286047001.6,N
1582207095.3,286047002.3,N
1582207115.2,286047001.7,N
1582207135.9,286047002.2,N
1582207155.7,286047004.3,N
1582207175.6,286047004.4,N
1582207195.4,286047003.4,N
